Flag for U.S.A. Weather past 2 weeks in Brattleboro, Vermont, U.S.A.

Now
23 °F

Clear.


Feels Like: 23 °F
Forecast: 26 / 54 °F
Wind: No wind

Location: Keene / Dillant


UV Index: 3 (Moderate)

Visibility: 7 mi


Pressure: 30.56 "Hg

Humidity: 80%

Dew point: 18 °F

Location of BrattleboroLocation

Historic Weather in Brattleboro

°F

Brattleboro temperature yesterday

Maximum temperature yesterday: 46 °F (at 2:35 PM)
Minimum temperature yesterday: 21 °F (at 5:35 AM)
Average temperature yesterday: 34 °F

Past Weeks' High & Low Weather Summary

 TemperatureHumidityPressure
High75 °F (Apr 14, 1:55 PM)87% (Apr 8, 9:55 AM)30.80 "Hg (Apr 8, 9:55 AM)
Low21 °F (Apr 17, 5:35 AM)19% (Apr 9, 3:55 PM)29.29 "Hg (Apr 8, 2:35 PM)
Average44 °F57%30.03 "Hg
* Reported Apr 3 5:15 AM — Apr 18 5:15 AM, Brattleboro, Weather by CustomWeather, © 2014

Note: Actual official high and low records may vary slightly from our data, if they occured in-between our weather recording intervals... More about our weather records

Advertising

Historic Weather Conditions — Data for Previous 24 hours

 ConditionsComfort  
Time TempWeatherWind HumidityBarometerVisibility
5:15 AM
Apr 18
23 °FPassing clouds.No wind80%30.58 "Hg10 mi
4:55 AM25 °FPassing clouds.No wind74%30.59 "Hg9 mi
4:35 AM25 °FClear.No wind74%30.61 "Hg10 mi
4:15 AM25 °FClear.No wind69%30.62 "Hg10 mi
3:55 AM25 °FClear.No wind74%30.61 "Hg10 mi
3:35 AM25 °FClear.No wind74%30.63 "Hg10 mi
3:15 AM25 °FClear.3 mph74%30.63 "Hg10 mi
2:55 AM27 °FClear.No wind74%30.62 "Hg10 mi
2:35 AM27 °FClear.No wind74%30.63 "Hg10 mi
2:15 AM27 °FClear.No wind74%30.63 "Hg10 mi
1:55 AM27 °FClear.3 mph69%30.62 "Hg10 mi
1:35 AM27 °FClear.No wind74%30.63 "Hg10 mi
1:15 AM27 °FClear.No wind74%30.63 "Hg10 mi
12:55 AM27 °FClear.No wind74%30.64 "Hg10 mi
12:35 AM28 °FClear.No wind69%30.63 "Hg10 mi
12:15 AM28 °FClear.No wind64%30.64 "Hg10 mi
11:55 PM
Apr 17
28 °FClear.No wind69%30.65 "Hg10 mi
11:35 PM28 °FClear.No wind69%30.66 "Hg10 mi
11:15 PM28 °FClear.No wind64%30.66 "Hg10 mi
10:55 PM28 °FClear.No wind69%30.66 "Hg10 mi
10:35 PM30 °FClear.No wind64%30.67 "Hg10 mi
10:15 PM30 °FClear.No wind64%30.68 "Hg10 mi
9:55 PM30 °FClear.No wind59%30.70 "Hg10 mi
9:35 PM34 °FClear.No wind51%30.71 "Hg10 mi
9:15 PM36 °FClear.No wind48%30.71 "Hg10 mi
8:55 PM36 °FClear.No wind48%30.70 "Hg10 mi
8:35 PM36 °FClear.No wind48%30.70 "Hg10 mi
8:15 PM37 °FSunny.No wind45%30.69 "Hg10 mi
7:55 PM37 °FSunny.3 mph41%30.69 "Hg10 mi
7:35 PM39 °FSunny.5 mph39%30.69 "Hg10 mi
7:15 PM39 °FSunny.No wind42%30.69 "Hg10 mi
6:55 PM43 °FSunny.7 mph36%30.68 "Hg10 mi
6:35 PM43 °FSunny.5 mph36%30.68 "Hg10 mi
6:15 PM45 °FSunny.3 mph34%30.68 "Hg10 mi
5:55 PM45 °FSunny.5 mph34%30.68 "Hg10 mi
5:35 PM46 °FSunny.6 mph32%30.68 "Hg10 mi
5:15 PM46 °FSunny.5 mph32%30.68 "Hg10 mi
4:55 PM46 °FSunny.6 mph34%30.68 "Hg10 mi
4:35 PM46 °FSunny.6 mph32%30.68 "Hg10 mi
4:15 PM46 °FSunny.6 mph32%30.68 "Hg10 mi
3:55 PM46 °FSunny.8 mph32%30.68 "Hg10 mi
3:35 PM46 °FSunny.5 mph32%30.69 "Hg10 mi
3:15 PM46 °FSunny.5 mph32%30.69 "Hg10 mi
2:55 PM46 °FSunny.3 mph32%30.70 "Hg10 mi
2:35 PM46 °FSunny.7 mph32%30.71 "Hg10 mi
2:15 PM45 °FSunny.3 mph31%30.72 "Hg10 mi
1:55 PM45 °FSunny.8 mph34%30.72 "Hg10 mi
12:55 PM41 °FSunny.8 mph31%30.74 "Hg10 mi
12:35 PM41 °FSunny.7 mph33%30.75 "Hg10 mi
12:15 PM39 °FSunny.7 mph33%30.77 "Hg10 mi
11:55 AM39 °FSunny.5 mph33%30.77 "Hg10 mi
11:35 AM37 °FSunny.8 mph33%30.78 "Hg10 mi
11:15 AM36 °FSunny.6 mph35%30.79 "Hg10 mi
10:55 AM36 °FSunny.9 mph38%30.79 "Hg10 mi
10:35 AM36 °FSunny.10 mph35%30.79 "Hg10 mi
10:15 AM34 °FSunny.6 mph38%30.79 "Hg10 mi
9:55 AM34 °FSunny.9 mph38%30.79 "Hg10 mi
9:35 AM34 °FSunny.8 mph38%30.79 "Hg10 mi
9:15 AM32 °FSunny.9 mph40%30.80 "Hg10 mi
8:55 AM30 °FSunny.12 mph43%30.79 "Hg10 mi
8:35 AM30 °FSunny.12 mph47%30.78 "Hg10 mi
8:15 AM30 °FSunny.7 mph47%30.78 "Hg10 mi
7:55 AM28 °FSunny.6 mph59%30.78 "Hg10 mi
7:35 AM27 °FSunny.5 mph64%30.78 "Hg10 mi
7:15 AM25 °FSunny.3 mph74%30.77 "Hg10 mi
6:55 AM25 °FClear.3 mph69%30.75 "Hg10 mi
6:35 AM23 °FClear.6 mph74%30.74 "Hg10 mi
6:15 AM21 °FClear.No wind80%30.73 "Hg10 mi
Weather by CustomWeather, © 2014

See weather overview